Year,Month,Day,Hour,Minute,Value (Times are PST for windspeed in km/hr)
2018,12,20,00,00,4.50
2018,12,20,00,01,9.00
2018,12,20,00,02,6.60
2018,12,20,00,03,3.80
2018,12,20,00,04,1.90
2018,12,20,00,05,0.20
2018,12,20,00,06,1.80
2018,12,20,00,07,4.90
2018,12,20,00,08,5.50
2018,12,20,00,09,9.90
2018,12,20,00,10,6.40
2018,12,20,00,11,8.10
2018,12,20,00,12,8.10
2018,12,20,00,13,7.80
2018,12,20,00,14,6.40
2018,12,20,00,15,3.70
2018,12,20,00,16,5.20
2018,12,20,00,17,6.80
2018,12,20,00,18,11.50
2018,12,20,00,19,8.90
2018,12,20,00,20,10.90
2018,12,20,00,21,7.40
2018,12,20,00,22,3.20
2018,12,20,00,23,11.00
2018,12,20,00,24,10.30
2018,12,20,00,25,14.60
2018,12,20,00,26,14.20
2018,12,20,00,27,11.80
2018,12,20,00,28,5.40
2018,12,20,00,29,9.20
2018,12,20,00,30,5.50
2018,12,20,00,31,9.20
2018,12,20,00,32,11.50
2018,12,20,00,33,12.90
2018,12,20,00,34,11.50
2018,12,20,00,35,6.70
2018,12,20,00,36,17.30
2018,12,20,00,37,20.50
2018,12,20,00,38,11.40
2018,12,20,00,39,6.80
2018,12,20,00,40,8.70
2018,12,20,00,41,10.40
2018,12,20,00,42,2.80
2018,12,20,00,43,6.50
2018,12,20,00,44,8.90
2018,12,20,00,45,12.90
2018,12,20,00,46,14.00
2018,12,20,00,47,16.40
2018,12,20,00,48,21.20
2018,12,20,00,49,23.70
2018,12,20,00,50,9.70
2018,12,20,00,51,7.90
2018,12,20,00,52,5.90
2018,12,20,00,53,2.80
2018,12,20,00,54,2.00
2018,12,20,00,55,7.90
2018,12,20,00,56,8.10
2018,12,20,00,57,16.60
2018,12,20,00,58,16.10
2018,12,20,00,59,9.30
2018,12,20,01,00,6.70
2018,12,20,01,01,12.90
2018,12,20,01,02,17.40
2018,12,20,01,03,10.30
2018,12,20,01,04,9.70
2018,12,20,01,05,10.90
2018,12,20,01,06,12.30
2018,12,20,01,07,9.20
2018,12,20,01,08,15.30
2018,12,20,01,09,15.10
2018,12,20,01,10,17.00
2018,12,20,01,11,13.80
2018,12,20,01,12,8.60
2018,12,20,01,13,4.00
2018,12,20,01,14,5.00
2018,12,20,01,15,7.80
2018,12,20,01,16,14.20
2018,12,20,01,17,7.50
2018,12,20,01,18,7.50
2018,12,20,01,19,10.70
2018,12,20,01,20,12.70
2018,12,20,01,21,12.60
2018,12,20,01,22,7.80
2018,12,20,01,23,10.70
2018,12,20,01,24,12.50
2018,12,20,01,25,8.60
2018,12,20,01,26,14.10
2018,12,20,01,27,9.90
2018,12,20,01,28,10.80
2018,12,20,01,29,14.30
2018,12,20,01,30,16.50
2018,12,20,01,31,16.20
2018,12,20,01,32,11.70
2018,12,20,01,33,12.40
2018,12,20,01,34,17.90
2018,12,20,01,35,19.10
2018,12,20,01,36,11.00
2018,12,20,01,37,7.90
2018,12,20,01,38,9.10
2018,12,20,01,39,3.60
2018,12,20,01,40,8.80
2018,12,20,01,41,9.70
2018,12,20,01,42,10.80
2018,12,20,01,43,10.40
2018,12,20,01,44,14.30
2018,12,20,01,45,7.10
2018,12,20,01,46,16.90
2018,12,20,01,47,18.50
2018,12,20,01,48,16.10
2018,12,20,01,49,19.50
2018,12,20,01,50,14.70
2018,12,20,01,51,11.40
2018,12,20,01,52,7.60
2018,12,20,01,53,10.90
2018,12,20,01,54,11.30
2018,12,20,01,55,12.50
2018,12,20,01,56,14.50
2018,12,20,01,57,15.10
2018,12,20,01,58,13.70
2018,12,20,01,59,8.30
2018,12,20,02,00,5.10
2018,12,20,02,01,7.20
2018,12,20,02,02,6.60
2018,12,20,02,03,3.10
2018,12,20,02,04,6.90
2018,12,20,02,05,5.40
2018,12,20,02,06,13.60
2018,12,20,02,07,13.40
2018,12,20,02,08,9.40
2018,12,20,02,09,7.10
2018,12,20,02,10,6.50
2018,12,20,02,11,12.00
2018,12,20,02,12,17.30
2018,12,20,02,13,12.10
2018,12,20,02,14,11.00
2018,12,20,02,15,5.40
2018,12,20,02,16,4.70
2018,12,20,02,17,10.40
2018,12,20,02,18,7.10
2018,12,20,02,19,16.10
2018,12,20,02,20,15.00
2018,12,20,02,21,5.30
2018,12,20,02,22,3.90
2018,12,20,02,23,8.10
2018,12,20,02,24,12.20
2018,12,20,02,25,5.80
2018,12,20,02,26,4.80
2018,12,20,02,27,13.50
2018,12,20,02,28,10.50
2018,12,20,02,29,12.00
2018,12,20,02,30,12.90
2018,12,20,02,31,10.60
2018,12,20,02,32,7.20
2018,12,20,02,33,11.60
2018,12,20,02,34,19.00
2018,12,20,02,35,13.60
2018,12,20,02,36,15.30
2018,12,20,02,37,21.50
2018,12,20,02,38,9.80
2018,12,20,02,39,6.60
2018,12,20,02,40,7.10
2018,12,20,02,41,10.10
2018,12,20,02,42,5.40
2018,12,20,02,43,3.90
2018,12,20,02,44,1.30
2018,12,20,02,45,8.90
2018,12,20,02,46,12.10
2018,12,20,02,47,14.00
2018,12,20,02,48,8.30
2018,12,20,02,49,8.70
2018,12,20,02,50,12.90
2018,12,20,02,51,12.40
2018,12,20,02,52,9.40
2018,12,20,02,53,9.00
2018,12,20,02,54,13.20
2018,12,20,02,55,10.70
2018,12,20,02,56,8.40
2018,12,20,02,57,1.60
2018,12,20,02,58,6.00
2018,12,20,02,59,6.70
2018,12,20,03,00,6.00
2018,12,20,03,01,3.90
2018,12,20,03,02,5.50
2018,12,20,03,03,12.50
2018,12,20,03,04,13.30
2018,12,20,03,05,10.30
2018,12,20,03,06,7.30
2018,12,20,03,07,4.30
2018,12,20,03,08,5.50
2018,12,20,03,09,5.40
2018,12,20,03,10,4.90
2018,12,20,03,11,15.80
2018,12,20,03,12,11.60
2018,12,20,03,13,4.80
2018,12,20,03,14,2.70
2018,12,20,03,15,2.20
2018,12,20,03,16,9.40
2018,12,20,03,17,7.00
2018,12,20,03,18,2.10
2018,12,20,03,19,5.30
2018,12,20,03,20,12.20
2018,12,20,03,21,4.70
2018,12,20,03,22,2.10
2018,12,20,03,23,10.50
2018,12,20,03,24,2.90
2018,12,20,03,25,6.00
2018,12,20,03,26,8.20
2018,12,20,03,27,12.10
2018,12,20,03,28,9.40
2018,12,20,03,29,8.20
2018,12,20,03,30,8.90
2018,12,20,03,31,10.50
2018,12,20,03,32,4.10
2018,12,20,03,33,6.90
2018,12,20,03,34,8.00
2018,12,20,03,35,8.40
2018,12,20,03,36,5.30
2018,12,20,03,37,2.80
2018,12,20,03,38,0.20
2018,12,20,03,39,3.30
2018,12,20,03,40,7.90
2018,12,20,03,41,4.60
2018,12,20,03,42,5.30
2018,12,20,03,43,4.30
2018,12,20,03,44,6.00
2018,12,20,03,45,11.80
2018,12,20,03,46,4.90
2018,12,20,03,47,3.40
2018,12,20,03,48,0.60
2018,12,20,03,49,9.30
2018,12,20,03,50,10.10
2018,12,20,03,51,12.30
2018,12,20,03,52,3.00
2018,12,20,03,53,4.40
2018,12,20,03,54,3.30
2018,12,20,03,55,3.70
2018,12,20,03,56,0.10
2018,12,20,03,57,2.60
2018,12,20,03,58,5.70
2018,12,20,03,59,6.70
2018,12,20,04,00,7.70
2018,12,20,04,01,5.80
2018,12,20,04,02,6.30
2018,12,20,04,03,10.20
2018,12,20,04,04,8.30
2018,12,20,04,05,7.10
2018,12,20,04,06,4.70
2018,12,20,04,07,5.00
2018,12,20,04,08,3.10
2018,12,20,04,09,1.20
2018,12,20,04,10,6.90
2018,12,20,04,11,9.10
2018,12,20,04,12,3.70
2018,12,20,04,13,2.40
2018,12,20,04,14,3.70
2018,12,20,04,15,8.70
2018,12,20,04,16,7.70
2018,12,20,04,17,4.40
2018,12,20,04,18,5.20
2018,12,20,04,19,2.50
2018,12,20,04,20,7.00
2018,12,20,04,21,3.80
2018,12,20,04,22,4.70
2018,12,20,04,23,3.50
2018,12,20,04,24,7.00
2018,12,20,04,25,8.50
2018,12,20,04,26,4.50
2018,12,20,04,27,2.40
2018,12,20,04,28,1.40
2018,12,20,04,29,1.50
2018,12,20,04,30,5.80
2018,12,20,04,31,6.10
2018,12,20,04,32,4.30
2018,12,20,04,33,4.30
2018,12,20,04,34,4.40
2018,12,20,04,35,4.30
2018,12,20,04,36,4.80
2018,12,20,04,37,1.60
2018,12,20,04,38,5.20
2018,12,20,04,39,3.00
2018,12,20,04,40,7.00
2018,12,20,04,41,3.90
2018,12,20,04,42,5.00
2018,12,20,04,43,6.50
2018,12,20,04,44,2.30
2018,12,20,04,45,1.40
2018,12,20,04,46,3.50
2018,12,20,04,47,2.70
2018,12,20,04,48,1.10
2018,12,20,04,49,1.90
2018,12,20,04,50,4.50
2018,12,20,04,51,0.40
2018,12,20,04,52,3.10
2018,12,20,04,53,9.20
2018,12,20,04,54,8.80
2018,12,20,04,55,9.80
2018,12,20,04,56,7.40
2018,12,20,04,57,6.30
2018,12,20,04,58,7.90
2018,12,20,04,59,7.30
2018,12,20,05,00,14.80
2018,12,20,05,01,12.30
2018,12,20,05,02,13.00
2018,12,20,05,03,9.70
2018,12,20,05,04,9.10
2018,12,20,05,05,12.30
2018,12,20,05,06,12.00
2018,12,20,05,07,9.70
2018,12,20,05,08,7.00
2018,12,20,05,09,11.20
2018,12,20,05,10,10.80
2018,12,20,05,11,8.60
2018,12,20,05,12,9.80
2018,12,20,05,13,12.50
2018,12,20,05,14,15.10
2018,12,20,05,15,10.80
2018,12,20,05,16,14.80
2018,12,20,05,17,9.50
2018,12,20,05,18,14.50
2018,12,20,05,19,18.90
2018,12,20,05,20,15.60
2018,12,20,05,21,9.20
2018,12,20,05,22,8.70
2018,12,20,05,23,10.60
2018,12,20,05,24,14.40
2018,12,20,05,25,14.30
2018,12,20,05,26,12.10
2018,12,20,05,27,9.00
2018,12,20,05,28,9.60
2018,12,20,05,29,10.10
2018,12,20,05,30,5.10
2018,12,20,05,31,10.60
2018,12,20,05,32,11.70
2018,12,20,05,33,11.70
2018,12,20,05,34,11.20
2018,12,20,05,35,6.20
2018,12,20,05,36,11.50
2018,12,20,05,37,16.30
2018,12,20,05,38,13.20
2018,12,20,05,39,25.20
2018,12,20,05,40,10.60
2018,12,20,05,41,14.30
2018,12,20,05,42,10.70
2018,12,20,05,43,18.00
2018,12,20,05,44,7.00
2018,12,20,05,45,2.00
2018,12,20,05,46,3.20
2018,12,20,05,47,8.10
2018,12,20,05,48,6.10
2018,12,20,05,49,7.50
2018,12,20,05,50,5.70
2018,12,20,05,51,4.00
2018,12,20,05,52,13.40
2018,12,20,05,53,9.70
2018,12,20,05,54,7.40
2018,12,20,05,55,8.30
2018,12,20,05,56,10.60
2018,12,20,05,57,12.30
2018,12,20,05,58,9.90
2018,12,20,05,59,10.80
2018,12,20,06,00,12.50
2018,12,20,06,01,7.80
2018,12,20,06,02,8.80
2018,12,20,06,03,10.70
2018,12,20,06,04,15.90
2018,12,20,06,05,9.20
2018,12,20,06,06,13.80
2018,12,20,06,07,10.90
2018,12,20,06,08,12.90
2018,12,20,06,09,16.10
2018,12,20,06,10,18.00
2018,12,20,06,11,10.60
2018,12,20,06,12,13.10
2018,12,20,06,13,12.00
2018,12,20,06,14,15.20
2018,12,20,06,15,13.40
2018,12,20,06,16,13.30
2018,12,20,06,17,12.30
2018,12,20,06,18,13.90
2018,12,20,06,19,23.70
2018,12,20,06,20,14.30
2018,12,20,06,21,7.90
2018,12,20,06,22,16.90
2018,12,20,06,23,21.00
2018,12,20,06,24,10.90
2018,12,20,06,25,10.80
2018,12,20,06,26,7.60
2018,12,20,06,27,5.70
2018,12,20,06,28,13.50
2018,12,20,06,29,19.00
2018,12,20,06,30,17.60
2018,12,20,06,31,22.20
2018,12,20,06,32,19.40
2018,12,20,06,33,19.50
2018,12,20,06,34,6.40
2018,12,20,06,35,8.60
2018,12,20,06,36,9.00
2018,12,20,06,37,7.40
2018,12,20,06,38,7.50
2018,12,20,06,39,8.70
2018,12,20,06,40,15.90
2018,12,20,06,41,8.30
2018,12,20,06,42,12.50
2018,12,20,06,43,23.90
2018,12,20,06,44,31.60
2018,12,20,06,45,15.40
2018,12,20,06,46,16.20
2018,12,20,06,47,12.50
2018,12,20,06,48,8.80
2018,12,20,06,49,13.90
2018,12,20,06,50,13.00
2018,12,20,06,51,19.70
2018,12,20,06,52,15.60
2018,12,20,06,53,22.60
2018,12,20,06,54,11.80
2018,12,20,06,55,13.30
2018,12,20,06,56,19.10
2018,12,20,06,57,17.50
2018,12,20,06,58,12.60
2018,12,20,06,59,14.80
2018,12,20,07,00,11.00
2018,12,20,07,01,14.50
2018,12,20,07,02,19.60
2018,12,20,07,03,16.00
2018,12,20,07,04,7.40
2018,12,20,07,05,12.90
2018,12,20,07,06,15.20
2018,12,20,07,07,16.20
2018,12,20,07,08,28.60
2018,12,20,07,09,23.70
2018,12,20,07,10,14.90
2018,12,20,07,11,19.10
2018,12,20,07,12,22.50
2018,12,20,07,13,13.70
2018,12,20,07,14,9.00
2018,12,20,07,15,15.30
2018,12,20,07,16,18.80
2018,12,20,07,17,16.00
2018,12,20,07,18,12.90
2018,12,20,07,19,18.50
2018,12,20,07,20,18.40
2018,12,20,07,21,11.00
2018,12,20,07,22,10.80
2018,12,20,07,23,11.50
2018,12,20,07,24,9.70
2018,12,20,07,25,6.90
2018,12,20,07,26,15.00
2018,12,20,07,27,16.80
2018,12,20,07,28,15.50
2018,12,20,07,29,16.30
2018,12,20,07,30,26.10
2018,12,20,07,31,20.90
2018,12,20,07,32,17.20
2018,12,20,07,33,23.40
2018,12,20,07,34,36.60
2018,12,20,07,35,33.30
2018,12,20,07,36,32.10
2018,12,20,07,37,43.30
2018,12,20,07,38,32.90
2018,12,20,07,39,22.10
2018,12,20,07,40,15.10
2018,12,20,07,41,22.90
2018,12,20,07,42,25.00
2018,12,20,07,43,25.40
2018,12,20,07,44,15.60
2018,12,20,07,45,11.80
2018,12,20,07,46,19.50
2018,12,20,07,47,23.60
2018,12,20,07,48,24.90
2018,12,20,07,49,12.10
2018,12,20,07,50,17.00
2018,12,20,07,51,16.10
2018,12,20,07,52,25.00
2018,12,20,07,53,17.20
2018,12,20,07,54,23.80
2018,12,20,07,55,22.10
2018,12,20,07,56,21.30
2018,12,20,07,57,19.40
2018,12,20,07,58,20.60
2018,12,20,07,59,29.20
2018,12,20,08,00,13.80
2018,12,20,08,01,15.20
2018,12,20,08,02,29.00
2018,12,20,08,03,23.70
2018,12,20,08,04,21.40
2018,12,20,08,05,36.10
2018,12,20,08,06,17.50
2018,12,20,08,07,9.90
2018,12,20,08,08,26.40
2018,12,20,08,09,20.10
2018,12,20,08,10,16.10
2018,12,20,08,11,30.70
2018,12,20,08,12,31.10
2018,12,20,08,13,25.30
2018,12,20,08,14,28.40
2018,12,20,08,15,25.90
2018,12,20,08,16,22.30
2018,12,20,08,17,23.90
2018,12,20,08,18,32.90
2018,12,20,08,19,25.60
2018,12,20,08,20,19.90
2018,12,20,08,21,31.40
2018,12,20,08,22,28.70
2018,12,20,08,23,43.50
2018,12,20,08,24,29.20
2018,12,20,08,25,19.80
2018,12,20,08,26,36.20
2018,12,20,08,27,40.30
2018,12,20,08,28,19.00
2018,12,20,08,29,10.60
2018,12,20,08,30,28.70
2018,12,20,08,31,33.40
2018,12,20,08,32,33.00
2018,12,20,08,33,39.00
2018,12,20,08,34,18.30
2018,12,20,08,35,29.00
2018,12,20,08,36,30.70
2018,12,20,08,37,45.00
2018,12,20,08,38,23.40
2018,12,20,08,39,25.50
2018,12,20,08,40,32.40
2018,12,20,08,41,21.60
2018,12,20,08,42,27.10
2018,12,20,08,43,27.80
2018,12,20,08,44,27.20
2018,12,20,08,45,23.20
2018,12,20,08,46,19.80
2018,12,20,08,47,32.50
2018,12,20,08,48,22.60
2018,12,20,08,49,23.00
2018,12,20,08,50,32.80
2018,12,20,08,51,27.10
2018,12,20,08,52,31.50
2018,12,20,08,53,13.70
2018,12,20,08,54,33.40
